Starlink 11736

operational
NORAD ID: 64317 Int'l Des: 2025-124 Owner: SPXS Country: US Constellation: starlink
LEOCIRCULAR

Starlink 11736について

説明を読み込み中...

リアルタイム位置

3D地球を読み込み中...

次回通過

高度履歴

Altitude vs Time

uPlot chart will show altitude changes over time

軌道要素

1 64317U 25124A 25307.74762358 .00185576 00000-0 14159-2 0 9998
2 64317 43.0005 68.6543 0001551 277.4957 82.5734 15.70869616 23025
Epoch: Nov 3, 2025 • Age: 26 hours

現在のステータス

高度 354.5 km
速度 7.70 km/s
衛星直下点 2.81°N, 82.34°E
打ち上げ日 Jun 10, 2025
運用期間 0.4 years
タイプ internet

技術仕様

分類 Payload
質量 960.00 kg
乾燥質量 910.00 kg
総質量 960.00 kg
長さ 0.30 m
直径 4.10 m
スパン 29.00 m
形状 Box + pan
製造者 SPXS
バスタイプ Starlink V2MD
フェーズステータス In Orbit
所有者/国 SPXS/US

大規模コンステレーション

Loading constellations...